EW9116 Weather Reports


time (UTC)temp
F
wind
direction
speed
knots
gust
knots
rain 1hr
in
rain 24hr
in
rain mn
in
humidity
%
barometer
mb
20260502194201 62 0 0.0 0.0 0.00 0.00 0.00 39 1011.6
20260502193701 62 0 0.0 0.0 0.00 0.00 0.00 41 1011.7
20260502193226 63 0 0.0 0.0 0.00 0.00 0.00 38 1011.8
20260502192201 62 0 0.0 0.0 0.00 0.00 0.00 40 1011.9
20260502191701 61 0 0.0 0.0 0.00 0.00 0.00 39 1012.1
20260502191201 62 0 0.0 0.0 0.00 0.00 0.00 38 1012.2
20260502190701 62 0 0.0 0.0 0.00 0.00 0.00 42 1012.3
20260502190202 62 0 0.0 0.0 0.00 0.00 0.00 42 1012.4
20260502185702 61 0 0.0 0.0 0.00 0.00 0.00 40 1012.4
20260502185202 60 0 0.0 0.0 0.00 0.00 0.00 40 1012.5
20260502184658 61 0 0.0 0.0 0.00 0.00 0.00 38 1012.7
20260502184158 61 0 0.0 0.0 0.00 0.00 0.00 39 1012.9
20260502183658 61 0 0.0 0.0 0.00 0.00 0.00 41 1012.9
20260502183158 61 0 0.0 0.0 0.00 0.00 0.00 39 1013.1
20260502182700 60 0 0.0 0.0 0.00 0.00 0.00 39 1013.1
20260502182158 60 0 0.0 0.0 0.00 0.00 0.00 39 1013.4
20260502181658 59 0 0.0 0.0 0.00 0.00 0.00 41 1013.3
20260502181158 59 0 0.0 0.0 0.00 0.00 0.00 39 1013.4
20260502180658 59 0 0.0 0.0 0.00 0.00 0.00 39 1013.5
20260502180157 59 0 0.0 0.0 0.00 0.00 0.00 40 1013.6
20260502170154 58 0 0.0 0.0 0.00 0.00 0.00 41 1014.3
20260502164155 57 0 0.0 0.0 0.00 0.00 0.00 43 1014.7
20260502163949 56 0 0.0 0.0 0.00 0.00 0.00 42 1014.7
20260502163153 56 0 0.0 0.0 0.00 0.00 0.00 41 1014.9
20260502162653 56 0 0.0 0.0 0.00 0.00 0.00 41 1015.0
20260502162155 56 0 0.0 0.0 0.00 0.00 0.00 45 1015.1
20260502161655 55 0 0.0 0.0 0.00 0.00 0.00 41 1015.1
20260502161451 55 0 0.0 0.0 0.00 0.00 0.00 43 1015.2
20260502160655 55 0 0.0 0.0 0.00 0.00 0.00 41 1015.3
20260502160154 55 0 0.0 0.0 0.00 0.00 0.00 42 1015.3
20260502151151 52 0 0.0 0.0 0.00 0.00 0.00 49 1016.1
20260502150653 52 0 0.0 0.0 0.00 0.00 0.00 49 1016.3
20260502150150 52 0 0.0 0.0 0.00 0.00 0.00 50 1016.3
20260502130625 41 0 0.0 0.0 0.00 0.00 0.00 70 1016.8
20260502130122 41 0 0.0 0.0 0.00 0.00 0.00 70 1016.9
20260502123113 37 0 0.0 0.0 0.00 0.00 0.00 79 1017.0
20260502122614 36 0 0.0 0.0 0.00 0.00 0.00 80 1017.0
20260502122112 36 0 0.0 0.0 0.00 0.00 0.00 80 1017.0
20260502121610 35 0 0.0 0.0 0.00 0.00 0.00 79 1016.9
20260502121107 34 0 0.0 0.0 0.00 0.00 0.00 80 1016.9
20260502120605 33 0 0.0 0.0 0.00 0.00 0.00 82 1016.8
20260502120347 33 0 0.0 0.0 0.00 0.00 0.00 83 1017.0
20260502115604 33 0 0.0 0.0 0.00 0.00 0.00 82 1016.9
20260502115102 33 0 0.0 0.0 0.00 0.00 0.00 81 1016.9
20260502114602 32 0 0.0 0.0 0.00 0.00 0.00 80 1016.8
20260502114350 32 0 0.0 0.0 0.00 0.00 0.00 80 1016.8
20260502113847 32 0 0.0 0.0 0.00 0.00 0.00 81 1016.8
20260502113102 31 0 0.0 0.0 0.00 0.00 0.00 81 1016.7
20260502112848 31 0 0.0 0.0 0.00 0.00 0.00 83 1016.7
20260502112057 31 0 0.0 0.0 0.00 0.00 0.00 84 1016.8
20260502111557 30 0 0.0 0.0 0.00 0.00 0.00 85 1016.8
20260502111058 30 0 0.0 0.0 0.00 0.00 0.00 86 1016.9
20260502110557 29 0 0.0 0.0 0.00 0.00 0.00 87 1016.9
20260502110057 29 0 0.0 0.0 0.00 0.00 0.00 87 1017.0
20260502105844 29 0 0.0 0.0 0.00 0.00 0.00 88 1016.9
20260502105058 29 0 0.0 0.0 0.00 0.00 0.00 88 1016.7
20260502104558 29 0 0.0 0.0 0.00 0.00 0.00 88 1016.7
20260502104059 29 0 0.0 0.0 0.00 0.00 0.00 88 1016.8
20260502103558 29 0 0.0 0.0 0.00 0.00 0.00 87 1016.8
20260502103059 29 0 0.0 0.0 0.00 0.00 0.00 86 1016.8
20260502102844 29 0 0.0 0.0 0.00 0.00 0.00 86 1016.8
20260502102058 30 0 0.0 0.0 0.00 0.00 0.00 85 1016.8
20260502101552 30 0 0.0 0.0 0.00 0.00 0.00 85 1016.8
20260502101331 30 0 0.0 0.0 0.00 0.00 0.00 83 1016.8
20260502100546 30 0 0.0 0.0 0.00 0.00 0.00 84 1016.8
20260502091038 30 0 0.0 0.0 0.00 0.00 0.00 85 1016.8
20260502090538 30 0 0.0 0.0 0.00 0.00 0.00 84 1016.8
20260502090323 30 0 0.0 0.0 0.00 0.00 0.00 84 1016.8
20260502071519 32 0 0.0 0.0 0.00 0.00 0.00 77 1017.1
20260502071019 32 0 0.0 0.0 0.00 0.00 0.00 75 1017.1
20260502070520 33 0 0.0 0.0 0.00 0.00 0.00 75 1017.2
20260502070019 33 0 0.0 0.0 0.00 0.00 0.00 75 1017.2
20260502065813 33 0 0.0 0.0 0.00 0.00 0.00 75 1017.3
20260502065016 33 0 0.0 0.0 0.00 0.00 0.00 75 1017.3
20260502064516 33 0 0.0 0.0 0.00 0.00 0.00 74 1017.4
20260502064310 33 0 0.0 0.0 0.00 0.00 0.00 75 1017.4
20260502063513 34 0 0.0 0.0 0.00 0.00 0.00 75 1017.4
20260502063014 34 0 0.0 0.0 0.00 0.00 0.00 75 1017.4
20260502062511 35 0 0.0 0.0 0.00 0.00 0.00 75 1017.3
20260502062009 35 0 0.0 0.0 0.00 0.00 0.00 72 1017.4
20260502061508 36 0 0.0 0.0 0.00 0.00 0.00 71 1017.4
20260502061006 37 0 0.0 0.0 0.00 0.00 0.00 66 1017.3
20260502060504 37 0 0.0 0.0 0.00 0.00 0.00 66 1017.2
20260502060002 37 0 0.0 0.0 0.00 0.00 0.00 67 1017.2
20260502055459 37 0 0.0 0.0 0.00 0.00 0.00 67 1017.2
20260502054954 37 0 0.0 0.0 0.00 0.00 0.00 68 1017.2
20260502054447 37 0 0.0 0.0 0.00 0.00 0.00 68 1017.2
20260502053941 36 0 0.0 0.0 0.00 0.00 0.00 68 1017.2
20260502053436 36 0 0.0 0.0 0.00 0.00 0.00 69 1017.3
20260502052932 36 0 0.0 0.0 0.00 0.00 0.00 67 1017.2
20260502052431 36 0 0.0 0.0 0.00 0.00 0.00 68 1017.3
20260502051930 36 0 0.0 0.0 0.00 0.00 0.00 70 1017.3
20260502051431 36 0 0.0 0.0 0.00 0.00 0.00 72 1017.3
20260502050930 36 0 0.0 0.0 0.00 0.00 0.00 74 1017.4
20260502050430 36 0 0.0 0.0 0.00 0.00 0.00 72 1017.4
20260502045931 36 0 0.0 0.0 0.00 0.00 0.00 71 1017.3
20260502045429 36 0 0.0 0.0 0.00 0.00 0.00 74 1017.4
20260502044931 36 0 0.0 0.0 0.00 0.00 0.00 74 1017.3
20260502044430 36 0 0.0 0.0 0.00 0.00 0.00 72 1017.3
20260502043928 36 0 0.0 0.0 0.00 0.00 0.00 71 1017.4
20260502043717 36 0 0.0 0.0 0.00 0.00 0.00 71 1017.4
20260502042920 36 0 0.0 0.0 0.00 0.00 0.00 73 1017.5
20260502042415 36 0 0.0 0.0 0.00 0.00 0.00 72 1017.6
20260502041913 36 0 0.0 0.0 0.00 0.00 0.00 74 1017.4
20260502041411 36 0 0.0 0.0 0.00 0.00 0.00 73 1017.5
20260502040910 37 0 0.0 0.0 0.00 0.00 0.00 71 1017.5
20260502040407 37 0 0.0 0.0 0.00 0.00 0.00 73 1017.6
20260502035907 37 0 0.0 0.0 0.00 0.00 0.00 68 1017.5
20260502035407 37 0 0.0 0.0 0.00 0.00 0.00 68 1017.5
20260502035158 37 0 0.0 0.0 0.00 0.00 0.00 70 1017.5
20260502034403 38 0 0.0 0.0 0.00 0.00 0.00 71 1017.5
20260502033902 38 0 0.0 0.0 0.00 0.00 0.00 70 1017.5
20260502033401 38 0 0.0 0.0 0.00 0.00 0.00 71 1017.4
20260502032902 38 0 0.0 0.0 0.00 0.00 0.00 70 1017.4
20260502032401 38 0 0.0 0.0 0.00 0.00 0.00 71 1017.5
20260502031901 39 0 0.0 0.0 0.00 0.00 0.00 72 1017.4
20260502031402 39 0 0.0 0.0 0.00 0.00 0.00 70 1017.6
20260502030901 39 0 0.0 0.0 0.00 0.00 0.00 67 1017.4
20260502030401 40 0 0.0 0.0 0.00 0.00 0.00 67 1017.3
20260502025901 41 0 0.0 0.0 0.00 0.00 0.00 65 1017.4
20260502025653 41 0 0.0 0.0 0.00 0.00 0.00 59 1017.3
20260502024901 41 0 0.0 0.0 0.00 0.00 0.00 60 1017.3
20260502024651 41 0 0.0 0.0 0.00 0.00 0.00 60 1017.3
20260502023901 41 0 0.0 0.0 0.00 0.00 0.00 59 1017.4
20260502023402 42 0 0.0 0.0 0.00 0.00 0.00 58 1017.3
20260502022902 42 0 0.0 0.0 0.00 0.00 0.00 58 1017.3
20260502022653 42 0 0.0 0.0 0.00 0.00 0.00 59 1017.2
20260502022148 42 0 0.0 0.0 0.00 0.00 0.00 57 1017.2
20260502021401 42 0 0.0 0.0 0.00 0.00 0.00 52 1017.1
20260502020901 43 0 0.0 0.0 0.00 0.00 0.00 56 1017.0
20260502020654 44 0 0.0 0.0 0.00 0.00 0.00 63 1017.1
20260502015903 44 0 0.0 0.0 0.00 0.00 0.00 61 1017.0
20260502015430 45 0 0.0 0.0 0.00 0.00 0.00 54 1017.0
20260502014653 46 0 0.0 0.0 0.00 0.00 0.00 52 1017.0
20260502013901 47 0 0.0 0.0 0.00 0.00 0.00 48 1016.9
20260502013402 47 0 0.0 0.0 0.00 0.00 0.00 51 1016.9
20260502012908 48 0 0.0 0.0 0.00 0.00 0.00 46 1016.8
20260502012402 49 0 0.0 0.0 0.00 0.00 0.00 40 1016.8
20260502011902 50 0 0.0 0.0 0.00 0.00 0.00 40 1016.8
20260502011359 50 0 0.0 0.0 0.00 0.00 0.00 37 1016.8
20260502010856 51 0 0.0 0.0 0.00 0.00 0.00 36 1016.7
20260502010357 51 0 0.0 0.0 0.00 0.00 0.00 35 1016.7
20260502005857 51 0 0.0 0.0 0.00 0.00 0.00 36 1016.7
20260502005357 51 0 0.0 0.0 0.00 0.00 0.00 36 1016.7
20260502004857 52 0 0.0 0.0 0.00 0.00 0.00 34 1016.6
20260502004356 52 0 0.0 0.0 0.00 0.00 0.00 35 1016.7
20260502003857 52 0 0.0 0.0 0.00 0.00 0.00 33 1016.6
20260502003357 52 0 0.0 0.0 0.00 0.00 0.00 34 1016.6
20260502002859 52 0 0.0 0.0 0.00 0.00 0.00 34 1016.6
20260502002640 52 0 0.0 0.0 0.00 0.00 0.00 34 1016.7
20260502001856 52 0 0.0 0.0 0.00 0.00 0.00 34 1016.6
20260502001357 52 0 0.0 0.0 0.00 0.00 0.00 34 1016.6
20260502000857 53 0 0.0 0.0 0.00 0.00 0.00 34 1016.7
20260502000644 53 0 0.0 0.0 0.00 0.00 0.00 33 1016.6
20260501235858 53 0 0.0 0.0 0.00 0.00 0.00 34 1016.6
20260501235358 53 0 0.0 0.0 0.00 0.00 0.00 33 1016.6
20260501235137 53 0 0.0 0.0 0.00 0.00 0.00 33 1016.6
20260501234649 53 0 0.0 0.0 0.00 0.00 0.00 33 1016.6
20260501233853 53 0 0.0 0.0 0.00 0.00 0.00 33 1016.7
20260501233352 53 0 0.0 0.0 0.00 0.00 0.00 36 1016.6
20260501232850 53 0 0.0 0.0 0.00 0.00 0.00 34 1016.7
20260501232345 53 0 0.0 0.0 0.00 0.00 0.00 35 1016.7
20260501231845 53 0 0.0 0.0 0.00 0.00 0.00 33 1016.6
20260501231339 53 0 0.0 0.0 0.00 0.00 0.00 36 1016.7
20260501230835 52 0 0.0 0.0 0.00 0.00 0.00 36 1016.7
20260501230334 52 0 0.0 0.0 0.00 0.00 0.00 35 1016.7
20260501225834 52 0 0.0 0.0 0.00 0.00 0.00 34 1016.7
20260501225331 53 0 0.0 0.0 0.00 0.00 0.00 35 1016.7
20260501225125 53 0 0.0 0.0 0.00 0.00 0.00 35 1016.7
20260501224332 53 0 0.0 0.0 0.00 0.00 0.00 32 1016.7
20260501223829 53 0 0.0 0.0 0.00 0.00 0.00 35 1016.7
20260501223330 53 0 0.0 0.0 0.00 0.00 0.00 35 1016.7
20260501222830 52 0 0.0 0.0 0.00 0.00 0.00 37 1016.7
20260501222330 52 0 0.0 0.0 0.00 0.00 0.00 38 1016.7
20260501221829 52 0 0.0 0.0 0.00 0.00 0.00 37 1016.8
20260501221330 52 0 0.0 0.0 0.00 0.00 0.00 35 1016.7
20260501220830 52 0 0.0 0.0 0.00 0.00 0.00 36 1016.8
20260501220340 52 0 0.0 0.0 0.00 0.00 0.00 37 1016.8
20260501215325 52 0 0.0 0.0 0.00 0.00 0.00 38 1016.9
20260501214822 52 0 0.0 0.0 0.00 0.00 0.00 38 1016.9
20260501214321 52 0 0.0 0.0 0.00 0.00 0.00 33 1016.9
20260501213817 52 0 0.0 0.0 0.00 0.00 0.00 34 1017.0
20260501213606 51 0 0.0 0.0 0.00 0.00 0.00 37 1016.9
20260501212815 51 0 0.0 0.0 0.00 0.00 0.00 37 1016.9
20260501212314 51 0 0.0 0.0 0.00 0.00 0.00 38 1017.0
20260501211816 51 0 0.0 0.0 0.00 0.00 0.00 35 1017.1
20260501211559 51 0 0.0 0.0 0.00 0.00 0.00 36 1017.0
20260501210810 51 0 0.0 0.0 0.00 0.00 0.00 36 1017.0
20260501210310 51 0 0.0 0.0 0.00 0.00 0.00 36 1017.1
20260501205807 52 0 0.0 0.0 0.00 0.00 0.00 37 1017.1
20260501205553 52 0 0.0 0.0 0.00 0.00 0.00 37 1017.1
20260501204805 52 0 0.0 0.0 0.00 0.00 0.00 43 1017.1
20260501204304 51 0 0.0 0.0 0.00 0.00 0.00 39 1017.2
20260501203803 51 0 0.0 0.0 0.00 0.00 0.00 37 1017.1
20260501203302 51 0 0.0 0.0 0.00 0.00 0.00 37 1017.2
20260501202802 52 0 0.0 0.0 0.00 0.00 0.00 36 1017.2
20260501202306 52 0 0.0 0.0 0.00 0.00 0.00 43 1017.3
20260501201801 52 0 0.0 0.0 0.00 0.00 0.00 39 1017.3
20260501201302 51 0 0.0 0.0 0.00 0.00 0.00 43 1017.3
20260501200803 52 0 0.0 0.0 0.00 0.00 0.00 38 1017.3
20260501200551 52 0 0.0 0.0 0.00 0.00 0.00 37 1017.3
20260501195801 52 0 0.0 0.0 0.00 0.00 0.00 37 1017.3
20260501195305 51 0 0.0 0.0 0.00 0.00 0.00 39 1017.3
20260501194801 51 0 0.0 0.0 0.00 0.00 0.00 38 1017.4